[[{"header":{"parameterUnit":"m.s-1","parameterCategory":1,"la1":30.2991,"la2":30.254,"lo1":-89.0895,"lo2":-89.0444,"dy":0.0017,"dx":0.0017,"nx":28,"ny":28,"refTime":"2025-01-31T03:00:00:Z","depth":0,"parameterNumber":2,"parameterNumberName":"U-component_of_WINDS"},"data":[0,0,0,0,0,0,0,0,0,0,0,0,0,0,0,0,0,0,0,0,0,0,0,0,0,0,0,0,0,0,0,0,0,0,0,0,0,0,0,0,0,0,0,0,0,0,0,0,0,0,0,0,0,0,0,0,0,0,-1.1116,-1.1116,0,-1.112,-1.112,-1.112,-1.1116,-1.1116,-1.1115,-1.1115,-1.1119,-1.1119,-1.1119,0,0,0,0,0,0,0,0,0,0,0,0,0,-1.1105,-1.1105,-1.1116,-1.1116,-1.1116,-1.112,-1.112,-1.112,-1.1116,-1.1116,-1.1115,-1.1115,-1.1119,-1.1119,-1.1119,0,0,0,0,0,0,0,0,0,0,0,0,0,-1.1109,-1.1105,-1.1116,-1.1115,-1.1114,-1.112,-1.112,-1.112,-1.1116,-1.1116,-1.1115,-1.1115,-1.1119,-1.1119,-1.1119,-1.1126,0,0,-1.112,-1.112,0,0,0,0,0,0,0,0,-1.1109,-1.111,-1.1115,-1.1115,-1.1115,-1.1117,-1.1117,-1.1122,-1.1116,-1.1115,-1.1115,-1.1115,-1.1118,-1.1119,-1.112,-1.1126,-1.1126,-1.112,-1.1121,-1.1121,-1.1121,0,0,0,0,0,0,0,-1.1109,-1.1109,-1.1118,-1.1115,-1.1115,-1.1113,-1.1114,-1.1118,-1.1118,-1.1115,-1.1115,-1.1116,-1.1118,-1.112,-1.112,-1.1126,-1.112,-1.1121,-1.1121,-1.1121,-1.1137,-1.1138,0,0,0,0,0,0,-1.1109,-1.1109,-1.1117,-1.1118,-1.1111,-1.1114,-1.1114,-1.1117,-1.1118,-1.1118,-1.1116,-1.1115,-1.1119,-1.1119,-1.112,-1.1127,-1.1121,-1.1121,-1.1121,-1.1137,-1.1138,-1.1138,0,0,0,0,0,0,-1.1108,-1.1109,-1.1117,-1.1113,-1.1114,-1.1114,-1.1117,-1.1117,-1.1118,-1.1118,-1.1118,-1.1117,-1.1119,-1.112,-1.1124,-1.1127,-1.1121,-1.1121,-1.1137,-1.1137,-1.1138,-1.1143,0,0,0,0,0,0,-1.1108,-1.1109,-1.1112,-1.1113,-1.1114,-1.1122,-1.1117,-1.1117,-1.1119,-1.1118,-1.112,-1.112,-1.1119,-1.1124,-1.1125,-1.1128,-1.1122,-1.1137,-1.1137,-1.1138,-1.1142,-1.1143,-1.1144,0,0,0,0,0,-1.1108,-1.1114,-1.1112,-1.1113,-1.1118,-1.1122,-1.1123,-1.1122,-1.1119,-1.1122,-1.1122,-1.112,-1.1127,-1.1124,-1.1125,-1.1129,-1.1136,-1.1137,-1.1137,-1.1142,-1.1143,-1.1144,0,0,0,0,0,0,-1.1113,-1.1114,-1.1112,-1.1119,-1.112,-1.1121,-1.1125,-1.1123,-1.1125,-1.1125,-1.1123,-1.1124,-1.1129,-1.1129,-1.1126,-1.1135,-1.1131,-1.1132,-1.1134,-1.1135,-1.1136,-1.1136,-1.1122,0,0,0,0,0,-1.1115,-1.1118,-1.1119,-1.1124,-1.1125,-1.1125,-1.1127,-1.1126,-1.1127,-1.1128,-1.1128,-1.1129,-1.1132,-1.1134,-1.1136,-1.1142,-1.1142,-1.1145,-1.1146,-1.1147,-1.1147,-1.1149,-1.1151,-1.1139,-1.1139,-1.1139,0,0,-1.1119,-1.112,-1.1122,-1.1125,-1.1126,-1.113,-1.1125,-1.1129,-1.1131,-1.1128,-1.1133,-1.1133,-1.1134,-1.114,-1.1142,-1.114,-1.115,-1.1147,-1.1148,-1.1148,-1.115,-1.1151,-1.1152,-1.114,-1.114,-1.114,0,0,-1.1127,-1.1129,-1.1133,-1.1134,-1.1136,-1.1135,-1.1136,-1.1137,-1.1137,-1.1142,-1.1139,-1.1142,-1.1147,-1.1147,-1.1148,-1.1156,-1.1154,-1.1157,-1.1162,-1.1164,-1.1165,-1.1166,-1.1168,-1.1169,-1.1158,-1.1158,-1.1158,0,-1.1132,-1.1137,-1.1136,-1.1139,-1.1141,-1.1138,-1.1142,-1.1143,-1.1145,-1.1146,-1.1144,-1.1149,-1.115,-1.1155,-1.1157,-1.1158,-1.1159,-1.1157,-1.1165,-1.1166,-1.1166,-1.1168,-1.1169,-1.1158,-1.1158,-1.1158,-1.1158,0,-1.1142,-1.1145,-1.1149,-1.1151,-1.1152,-1.1156,-1.1155,-1.1157,-1.1156,-1.1156,-1.116,-1.1161,-1.1163,-1.1164,-1.1163,-1.1168,-1.1167,-1.1165,-1.1161,-1.1168,-1.117,-1.117,-1.1159,-1.1158,-1.1158,-1.1158,0,0,-1.1154,-1.1155,-1.1156,-1.1157,-1.1158,-1.116,-1.1164,-1.1166,-1.1167,-1.1169,-1.1171,-1.1175,-1.1173,-1.1174,-1.1173,-1.1175,-1.118,-1.1172,-1.1172,-1.1173,-1.1186,-1.1187,-1.1188,-1.1179,-1.1179,-1.1179,-1.1185,0,-1.1162,-1.1169,-1.1167,-1.1173,-1.1176,-1.1173,-1.1176,-1.1176,-1.1176,-1.1178,-1.1177,-1.118,-1.1177,-1.1178,-1.118,-1.1179,-1.1183,-1.1179,-1.1181,-1.1181,-1.118,-1.1189,-1.1191,-1.1197,-1.1186,-1.1186,-1.1187,0,-1.1173,-1.1174,-1.118,-1.118,-1.1181,-1.1184,-1.1185,-1.1187,-1.1188,-1.1188,-1.1188,-1.1187,-1.119,-1.1186,-1.119,-1.1187,-1.1188,-1.1188,-1.1188,-1.1188,-1.1184,-1.1189,-1.1198,-1.1199,-1.1188,-1.1188,-1.1188,0,-1.118,-1.1184,-1.1188,-1.1188,-1.1189,-1.119,-1.1191,-1.1191,-1.1192,-1.1193,-1.1194,-1.1195,-1.1196,-1.1197,-1.1195,-1.1193,-1.1199,-1.1196,-1.1198,-1.1198,-1.12,-1.1199,-1.1209,-1.1201,-1.1201,-1.1201,-1.1201,0,-1.1189,-1.1193,-1.1191,-1.1193,-1.1197,-1.1195,-1.1199,-1.1199,-1.1199,-1.1201,-1.1199,-1.12,-1.1199,-1.12,-1.1199,-1.1202,-1.1202,-1.1202,-1.1201,-1.1202,-1.1202,-1.1202,-1.1201,-1.1201,-1.1201,-1.1201,-1.1201,0,-1.1198,-1.1197,-1.1201,-1.1201,-1.1201,-1.1203,-1.1203,-1.1205,-1.1204,-1.1207,-1.1207,-1.1206,-1.1207,-1.1206,-1.1208,-1.1207,-1.1211,-1.121,-1.121,-1.121,-1.1212,-1.1212,-1.1222,-1.1223,-1.1215,-1.1215,-1.1215,0,-1.1204,-1.1206,-1.1206,-1.1207,-1.1207,-1.1209,-1.121,-1.1208,-1.1209,-1.121,-1.1212,-1.1213,-1.1214,-1.1217,-1.1216,-1.1217,-1.1216,-1.1219,-1.1216,-1.1216,-1.1215,-1.1215,-1.1215,-1.122,-1.122,-1.122,-1.122,0,-1.1213,-1.1212,-1.1214,-1.1215,-1.1216,-1.1217,-1.1218,-1.1219,-1.1217,-1.1218,-1.1219,-1.122,-1.1221,-1.1223,-1.1223,-1.1223,-1.1221,-1.1221,-1.1222,-1.1222,-1.1222,-1.1221,-1.1212,-1.1221,-1.1221,-1.1221,-1.1221,-1.1221,-1.122,-1.1222,-1.1222,-1.1224,-1.1224,-1.1224,-1.1226,-1.1225,-1.1226,-1.1227,-1.1226,-1.1228,-1.1228,-1.1228,-1.1228,-1.123,-1.1228,-1.1229,-1.1229,-1.1229,-1.1229,-1.1222,-1.123,-1.123,-1.123,-1.123,-1.123,0,-1.1229,-1.1229,-1.123,-1.1231,-1.1232,-1.123,-1.123,-1.1231,-1.1233,-1.1233,-1.1234,-1.1235,-1.1236,-1.1235,-1.1236,-1.1237,-1.1236,-1.1237,-1.1237,-1.1237,-1.1231,-1.123,-1.1238,-1.1238,-1.1238,-1.1238,-1.1238,-1.1238,-1.1234,-1.1237,-1.1236,-1.1239,-1.1238,-1.124,-1.124,-1.124,-1.124,-1.1242,-1.1243,-1.1242,-1.1242,-1.1242,-1.1243,-1.1243,-1.1243,-1.1244,-1.1243,-1.1238,-1.1237,-1.1236,-1.1236,-1.1244,-1.1244,-1.1249,-1.1249,-1.1249]},{"header":{"parameterUnit":"m.s-1","parameterCategory":1,"la1":30.2991,"la2":30.254,"lo1":-89.0895,"lo2":-89.0444,"dy":0.0017,"dx":0.0017,"nx":28,"ny":28,"refTime":"2025-01-31T03:00:00:Z","depth":0,"parameterNumber":3,"parameterNumberName":"V-component_of_WINDS"},"data":[0,0,0,0,0,0,0,0,0,0,0,0,0,0,0,0,0,0,0,0,0,0,0,0,0,0,0,0,0,0,0,0,0,0,0,0,0,0,0,0,0,0,0,0,0,0,0,0,0,0,0,0,0,0,0,0,0,0,5.8429,5.8429,0,5.8472,5.8473,5.8473,5.8449,5.8447,5.8446,5.8445,5.8485,5.8487,5.8489,0,0,0,0,0,0,0,0,0,0,0,0,0,5.8322,5.8325,5.8429,5.8429,5.843,5.8472,5.8473,5.8473,5.8449,5.8447,5.8446,5.8445,5.8484,5.8487,5.8489,0,0,0,0,0,0,0,0,0,0,0,0,0,5.8367,5.8325,5.8429,5.8423,5.8423,5.8472,5.8473,5.8473,5.8449,5.8447,5.8445,5.8444,5.8483,5.8486,5.849,5.8546,0,0,5.85,5.8501,0,0,0,0,0,0,0,0,5.8365,5.8371,5.8423,5.8423,5.8423,5.8453,5.845,5.8497,5.845,5.8439,5.8445,5.8443,5.8476,5.8479,5.8491,5.8547,5.8549,5.85,5.8502,5.8503,5.8504,0,0,0,0,0,0,0,5.8362,5.8369,5.8446,5.8424,5.8424,5.8417,5.8422,5.8459,5.8467,5.844,5.8438,5.8444,5.8475,5.8488,5.8492,5.855,5.85,5.8503,5.8505,5.8506,5.8657,5.8659,0,0,0,0,0,0,5.836,5.8367,5.8444,5.8447,5.8389,5.8421,5.8426,5.8445,5.8466,5.8468,5.8445,5.8443,5.8483,5.8488,5.8493,5.8563,5.8503,5.8506,5.8508,5.8655,5.8658,5.866,0,0,0,0,0,0,5.8357,5.8367,5.8443,5.8407,5.8416,5.8424,5.8447,5.8447,5.846,5.847,5.8471,5.8457,5.8482,5.8489,5.8534,5.8564,5.8508,5.8511,5.8653,5.8656,5.8659,5.8701,0,0,0,0,0,0,5.8354,5.8366,5.8388,5.8407,5.8418,5.8484,5.8449,5.8449,5.8466,5.8463,5.8482,5.8483,5.8481,5.8529,5.8537,5.8567,5.8513,5.865,5.8654,5.8658,5.8697,5.8705,5.8712,0,0,0,0,0,5.8351,5.8396,5.8389,5.8399,5.8446,5.8485,5.8491,5.8489,5.8469,5.8491,5.8498,5.8483,5.8559,5.8534,5.8543,5.8574,5.8648,5.8653,5.8658,5.8694,5.8703,5.8712,0,0,0,0,0,0,5.8377,5.8398,5.8391,5.8444,5.8464,5.8481,5.8509,5.8499,5.8523,5.8519,5.8514,5.8519,5.8567,5.8574,5.8546,5.8631,5.86,5.8607,5.8625,5.8634,5.8642,5.864,5.8516,0,0,0,0,0,5.839,5.8422,5.8438,5.8483,5.8494,5.85,5.8517,5.8514,5.8533,5.854,5.855,5.8569,5.8597,5.8615,5.8642,5.8697,5.8702,5.8723,5.8731,5.8737,5.8744,5.8776,5.8787,5.8675,5.8675,5.8675,0,0,5.8415,5.8431,5.8451,5.8489,5.8504,5.8537,5.8506,5.8541,5.8566,5.8545,5.859,5.8598,5.8618,5.867,5.8693,5.8677,5.8775,5.8743,5.8748,5.8751,5.8782,5.8793,5.8802,5.8678,5.8678,5.8677,0,0,5.8479,5.8493,5.8535,5.8551,5.8574,5.8578,5.8588,5.8608,5.8614,5.8659,5.8645,5.8673,5.8721,5.8737,5.8751,5.8824,5.8812,5.8832,5.8872,5.8905,5.8913,5.8921,5.895,5.896,5.8838,5.8838,5.8838,0,5.8508,5.8558,5.8556,5.8594,5.8612,5.8597,5.864,5.8654,5.8684,5.8697,5.868,5.8743,5.8754,5.8811,5.8829,5.884,5.8852,5.8831,5.8913,5.892,5.8928,5.8955,5.8965,5.8841,5.8841,5.884,5.884,0,5.8593,5.8628,5.8658,5.8692,5.8712,5.8752,5.8756,5.8778,5.8773,5.8779,5.8827,5.8841,5.8871,5.8884,5.8878,5.8941,5.8931,5.8913,5.8883,5.8941,5.8967,5.8977,5.8845,5.8844,5.8843,5.8842,0,0,5.8675,5.8709,5.872,5.8736,5.8762,5.8789,5.8828,5.886,5.888,5.8901,5.8934,5.8977,5.8962,5.8978,5.8974,5.9002,5.9063,5.8981,5.8982,5.8998,5.9135,5.9151,5.9163,5.9054,5.9056,5.9058,5.9135,0,5.8742,5.8814,5.8815,5.888,5.8914,5.8901,5.8935,5.8955,5.8961,5.899,5.8997,5.9029,5.9004,5.9015,5.9042,5.905,5.9091,5.9044,5.9086,5.9088,5.9085,5.9176,5.9191,5.9263,5.9144,5.9146,5.9147,0,5.8831,5.8859,5.8929,5.8953,5.8967,5.8998,5.903,5.9057,5.9079,5.9082,5.9102,5.9095,5.9135,5.9102,5.9158,5.9127,5.9144,5.9151,5.9153,5.9159,5.9123,5.9186,5.9285,5.9297,5.9162,5.9161,5.916,0,5.8888,5.8942,5.8992,5.9005,5.9034,5.9057,5.9069,5.909,5.911,5.9137,5.915,5.918,5.9196,5.9219,5.9221,5.9196,5.9278,5.9245,5.9283,5.9283,5.9302,5.9302,5.9409,5.9309,5.9309,5.9309,5.9309,0,5.8965,5.9009,5.9018,5.9049,5.9098,5.9098,5.9146,5.9157,5.9176,5.9208,5.9197,5.9227,5.9226,5.9257,5.9258,5.9306,5.9312,5.9317,5.9317,5.9319,5.9319,5.9332,5.9328,5.9312,5.9311,5.931,5.931,0,5.9037,5.9045,5.9099,5.9123,5.913,5.9165,5.9185,5.9214,5.9221,5.9262,5.9272,5.9282,5.9318,5.9321,5.9362,5.9362,5.9422,5.9415,5.9415,5.9415,5.9454,5.9451,5.9575,5.9592,5.9479,5.948,5.9481,0,5.9087,5.9121,5.915,5.9172,5.9187,5.9222,5.9244,5.9245,5.9268,5.9298,5.9324,5.9359,5.9388,5.9446,5.9456,5.9488,5.9484,5.9525,5.9488,5.9491,5.9488,5.9487,5.9491,5.9532,5.9534,5.9535,5.9535,0,5.9176,5.9179,5.9212,5.9247,5.9274,5.9301,5.9326,5.9344,5.9349,5.9375,5.9413,5.9436,5.948,5.9515,5.9547,5.9559,5.9549,5.9547,5.9558,5.9562,5.9562,5.9566,5.9437,5.9544,5.9543,5.9543,5.9542,5.9542,5.924,5.9272,5.9298,5.9335,5.9355,5.938,5.941,5.9422,5.9454,5.9492,5.949,5.9533,5.9555,5.9598,5.9612,5.9645,5.9631,5.9646,5.9651,5.9655,5.9661,5.9555,5.965,5.965,5.965,5.965,5.9649,0,5.9332,5.9349,5.9383,5.9421,5.9451,5.944,5.9468,5.9493,5.9532,5.9555,5.9585,5.963,5.9665,5.9679,5.9714,5.9738,5.9734,5.9747,5.9747,5.975,5.967,5.9658,5.975,5.975,5.975,5.975,5.975,5.975,5.9383,5.9436,5.9443,5.9506,5.9522,5.9566,5.9583,5.9606,5.9625,5.9677,5.9707,5.9717,5.9737,5.9773,5.9806,5.9809,5.9823,5.9839,5.984,5.9765,5.9755,5.9746,5.9735,5.9841,5.9841,5.9918,5.9919,5.9919]}]]